Helicity
131 69 -1 10 136 146 88 70 64 71 58 42 96 124 87 94 89 84 75 58 51 67 68 34 34 92 121 170 147 123 227 270 265 225 189 219 363 464 494 214 247 251 268 248
80 66 101 117 117 138 89 60 73 96 80 108 103 108 94 79 71 39 84 103 67 25 35 18 -6 43 115 143 185 179 236 270 254 240 207 297 376 534 515 324 200 195 251 231
102 75 25 130 107 110 118 109 75 76 76 152 135 104 54 29 -11 11 103 160 29 95 85 57 -17 13 83 160 168 243 288 245 267 226 305 355 432 445 424 340 153 121 200 213
44 131 112 81 95 121 165 170 147 115 107 137 197 149 90 -13 50 51 84 132 124 188 121 78 45 2 77 190 210 324 290 257 263 274 291 303 421 498 427 327 173 150 214 226
50 111 138 88 84 163 227 165 150 155 165 141 141 177 187 108 121 44 48 79 287 265 176 30 -51 -14 29 232 333 308 285 255 262 267 292 361 410 510 476 422 234 155 206 223
73 108 95 129 81 99 123 148 174 87 244 191 118 192 277 160 64 53 124 199 176 105 67 -61 -7 73 40 241 394 316 285 236 262 272 314 379 407 468 448 366 136 149 195 203
98 52 228 155 107 86 183 144 123 162 205 201 102 70 160 71 120 133 142 128 104 112 26 12 60 86 137 321 342 286 237 241 259 312 339 389 416 354 430 360 187 137 183 189
76 68 155 243 128 144 138 153 166 235 246 244 153 130 179 68 114 106 135 78 97 77 7 50 18 35 205 309 254 231 209 228 286 302 323 339 302 291 246 295 137 121 155 165
91 126 184 198 149 240 222 166 183 263 235 232 181 199 74 93 40 86 94 100 -48 -12 30 39 13 73 265 208 173 207 182 183 252 278 295 246 228 273 380 153 164 135 157 162
107 144 91 165 177 114 184 160 232 218 209 209 313 193 253 106 122 172 137 17 -59 36 65 59 16 136 165 159 141 158 159 189 240 269 317 303 270 328 309 115 179 166 172 166
88 137 131 153 155 140 216 223 242 308 281 288 272 277 177 117 192 103 -16 10 -20 54 33 42 98 189 128 117 96 125 148 238 313 288 259 263 211 320 183 152 165 166 164 161
73 119 176 176 56 58 206 179 111 313 313 361 301 442 182 152 175 164 -29 42 51 13 12 61 112 101 66 70 96 131 258 329 393 441 357 256 192 400 167 154 154 161 168 190
134 99 128 90 145 169 239 207 173 179 250 286 307 403 232 157 138 38 21 31 8 4 8 30 45 53 65 95 172 215 290 423 494 556 485 244 231 225 177 170 178 192 198 180
164 176 201 247 176 125 144 126 101 172 282 271 306 315 220 215 232 23 47 38 -24 -10 -14 23 49 39 93 130 203 283 375 549 489 499 475 344 256 252 201 161 156 184 174 174
134 172 116 134 143 140 149 105 103 129 156 267 251 188 188 236 208 123 90 6 -26 -12 -4 10 46 46 85 142 238 382 468 499 364 413 417 251 277 248 223 192 156 166 188 166
96 152 103 81 93 73 134 167 131 79 95 145 153 176 162 201 173 77 1 10 23 -2 -4 3 33 42 36 148 216 251 323 358 394 389 303 190 245 239 214 215 159 180 161 138
144 123 75 101 102 51 123 123 117 116 94 119 146 154 86 134 73 117 69 0 5 -11 -11 -9 3 40 63 114 197 206 170 165 223 162 207 152 189 176 201 162 161 160 134 114
192 145 115 119 30 131 127 113 134 121 90 77 97 80 89 160 91 152 36 28 32 -22 -30 -37 50 122 134 217 268 286 266 207 259 249 247 113 71 126 129 125 136 149 133 157
166 176 195 160 143 90 60 91 101 108 69 84 60 65 77 58 78 134 -32 -6 5 -19 5 56 84 172 220 345 416 351 255 234 231 187 188 97 81 119 106 110 151 118 100 88
275 219 264 196 163 127 125 101 111 98 70 59 46 54 59 -19 -25 23 -25 -3 -23 -5 47 159 181 200 233 280 411 408 285 236 246 194 141 104 85 98 117 120 108 100 90 93
232 225 158 155 182 94 62 119 101 79 67 48 -12 30 49 89 -34 3 -32 -39 -23 -22 -9 74 122 69 93 97 213 262 238 220 138 76 55 46 66 106 123 120 111 97 88 87
186 146 173 168 167 69 106 96 89 61 49 28 -25 4 -9 21 -30 58 19 -5 25 31 2 62 72 5 -4 -13 13 30 94 75 62 74 87 79 72 99 111 117 93 76 70 70
172 145 90 111 66 87 77 75 74 77 42 26 24 -8 -2 23 8 20 -2 0 16 -6 -53 -27 31 36 -12 -42 0 9 9 28 39 42 69 97 115 113 104 98 88 75 53 37
150 106 126 128 62 66 56 50 102 90 45 30 39 30 16 19 -12 51 23 25 -11 8 -8 -5 14 27 22 15 16 90 75 74 101 110 102 117 123 126 112 95 62 48 41 42
118 113 139 106 64 75 55 48 102 60 24 35 27 33 22 -2 -27 36 41 13 9 7 14 21 55 56 62 60 91 79 99 118 135 131 127 129 120 115 112 85 52 70 59 32
98 81 151 94 51 91 76 76 57 41 18 26 21 2 30 -31 -3 25 21 37 17 40 51 55 58 95 77 87 99 98 88 117 135 150 132 112 106 100 104 112 128 110 80 79
Wind_Speed
49 64 69 68 66 69 79 83 90 88 80 86 98 108 108 104 82 69 52 48 54 58 62 70 67 63 60 56 46 56 46 43 48 62 68 70 67 48 51 46 41 33 27 20
55 61 58 59 59 66 75 86 93 86 74 89 106 111 87 69 59 54 49 48 48 51 57 65 69 66 61 56 53 51 48 47 46 57 64 67 68 61 43 40 39 40 30 23
53 48 62 60 62 75 72 83 88 93 99 83 90 96 73 63 51 46 33 26 33 52 63 71 76 70 60 55 52 47 47 48 48 49 55 57 56 53 49 34 39 52 34 25
50 48 56 63 66 59 83 61 77 86 99 102 73 100 74 52 56 59 43 33 47 62 73 82 88 90 74 56 54 43 44 44 46 46 54 65 70 64 47 47 40 44 33 24
54 54 63 69 62 60 65 62 72 71 79 80 73 59 55 56 56 51 53 57 62 75 87 101 111 116 94 46 40 38 38 42 43 49 51 65 66 58 48 39 50 38 27 25
36 40 48 49 55 52 54 67 74 57 63 74 63 50 70 65 49 70 59 66 76 88 102 114 107 92 67 41 32 34 36 38 38 47 56 63 69 69 51 47 50 35 27 28
63 49 42 46 63 58 65 83 92 81 80 73 69 70 48 34 59 68 73 83 86 91 108 99 91 80 44 27 27 27 28 29 36 51 59 62 66 60 52 46 37 36 38 32
65 72 46 43 53 62 69 59 70 89 92 80 55 46 52 65 60 71 84 87 98 108 93 83 68 59 10 16 20 22 23 26 32 50 59 62 60 57 50 40 39 43 39 33
62 57 45 42 46 53 58 57 47 62 56 62 50 52 56 65 78 89 92 105 127 112 84 76 43 17 3 11 14 15 20 27 34 48 59 64 66 51 47 36 30 33 36 28
53 69 50 47 50 40 36 49 62 55 71 80 52 67 66 75 88 89 90 106 120 91 78 69 26 11 4 7 9 12 21 28 38 49 57 60 52 37 34 34 30 32 26 19
50 52 54 56 50 50 49 51 44 48 43 59 65 74 49 57 75 101 117 110 58 42 58 45 22 13 5 4 5 12 23 35 46 55 59 57 53 39 28 30 32 24 20 16
43 55 64 58 42 42 42 46 42 50 49 40 51 42 38 59 89 99 106 44 39 49 47 39 20 13 9 1 6 13 32 39 44 48 45 47 51 29 28 27 23 23 20 18
44 53 72 70 52 48 49 42 45 42 36 36 50 37 53 64 83 103 95 57 47 37 39 29 21 12 5 6 10 28 34 40 43 42 30 32 35 29 24 23 26 21 18 14
50 52 48 51 53 57 54 48 44 39 36 34 30 49 52 68 65 75 39 54 37 39 38 21 14 3 13 6 19 31 29 34 39 30 24 34 34 26 25 22 21 18 15 13
44 61 54 47 49 49 46 43 39 31 23 28 36 37 47 59 55 50 56 34 45 39 35 12 5 11 13 14 20 19 23 27 27 27 28 32 28 22 20 22 19 18 14 11
38 61 68 67 53 43 44 42 31 23 20 23 25 28 43 62 44 28 24 33 26 34 39 42 26 21 22 13 16 19 27 16 27 26 26 26 27 16 15 18 15 16 14 13
48 54 65 64 67 74 55 42 39 32 31 29 30 26 37 34 28 34 37 26 22 33 40 48 51 30 23 19 14 18 30 21 26 25 17 15 16 19 24 19 15 15 13 14
58 54 54 70 73 55 42 40 32 30 24 30 24 35 33 27 18 43 23 12 20 35 39 46 10 14 18 5 14 17 23 21 20 15 25 22 19 20 17 20 18 18 17 13
52 52 61 59 58 51 49 35 40 42 45 40 38 33 48 29 16 33 19 13 21 28 36 46 45 18 5 13 19 21 19 22 17 23 25 20 20 18 19 19 17 19 20 15
54 44 46 46 52 48 43 33 38 41 42 40 46 19 61 36 34 3 6 13 24 26 30 34 8 13 14 11 18 23 26 16 18 17 23 29 17 20 18 17 17 13 15 15
49 47 43 40 47 44 33 31 33 41 40 33 44 5 59 54 23 12 13 15 25 30 19 8 34 26 42 34 18 24 19 21 31 19 20 26 21 22 17 19 11 13 13 11
51 42 42 39 37 43 17 30 32 32 41 54 38 4 47 8 48 31 22 18 29 47 56 61 67 39 63 44 50 22 32 17 19 18 15 15 17 18 17 13 10 15 13 11
69 51 47 31 30 32 17 29 33 39 39 41 47 19 12 10 44 34 21 24 17 6 52 62 62 66 64 60 61 61 45 25 32 27 25 21 19 18 14 14 9 8 15 19
67 51 58 47 47 25 21 18 30 40 41 34 36 40 13 12 32 30 26 27 12 9 46 51 56 59 57 52 39 39 42 36 34 32 29 21 15 10 6 7 13 18 19 18
65 47 58 59 56 41 25 27 25 38 44 35 32 35 24 22 26 24 30 29 35 37 44 40 34 40 37 36 25 26 19 11 10 11 10 12 19 24 24 20 19 16 17 19
60 55 55 54 38 32 28 20 30 40 42 41 36 39 35 29 26 26 24 22 23 28 30 31 27 26 30 33 33 32 36 40 38 34 31 28 25 19 16 14 13 18 20 23
Wind_Direction
11 356 349 350 350 344 335 330 325 327 332 326 322 319 321 321 323 323 324 325 322 313 309 301 300 292 288 281 279 274 264 263 258 250 247 241 237 238 245 252 248 236 237 239
358 352 1 358 354 348 341 332 328 330 339 332 325 321 328 331 330 333 333 332 327 322 317 311 307 301 290 283 276 273 263 256 258 254 249 245 237 239 243 249 251 241 236 238
352 356 350 355 353 345 345 337 334 329 330 336 331 330 340 344 341 338 334 336 331 325 316 311 309 308 298 284 276 267 259 256 256 254 249 243 236 235 240 242 244 237 236 237
353 2 355 351 348 350 342 354 342 337 334 331 341 327 340 348 348 344 348 340 329 322 314 309 304 298 300 288 274 261 258 253 251 249 244 235 232 231 234 233 239 236 234 231
351 351 350 348 353 356 348 351 344 339 336 338 344 337 346 345 345 345 340 334 327 319 313 307 299 286 293 281 264 253 252 252 248 244 237 232 228 227 224 229 227 229 229 227
343 353 353 357 356 353 347 347 343 347 352 345 350 346 340 341 347 336 344 335 329 323 316 310 305 300 288 266 249 248 249 250 244 238 229 224 220 219 218 222 222 223 219 225
342 351 357 359 353 359 0 351 344 345 347 345 351 342 345 348 347 341 337 331 330 329 321 316 312 300 287 243 239 240 241 241 234 226 221 219 217 220 214 212 225 222 220 224
339 341 355 2 359 354 353 1 355 342 342 339 349 354 352 343 349 345 336 336 331 326 328 324 321 307 253 228 224 232 229 225 221 218 215 214 211 214 220 208 213 220 220 220
336 340 356 350 355 360 3 358 1 347 344 346 357 351 342 351 341 339 337 332 323 321 327 318 332 330 219 212 212 209 210 217 211 210 209 207 209 207 216 213 192 211 215 213
338 331 348 357 356 357 358 3 358 360 350 348 354 346 347 349 342 344 343 337 327 317 302 314 351 6 78 217 195 214 212 212 208 206 203 201 203 200 190 190 195 197 199 198
334 335 342 346 353 354 357 354 358 358 357 349 349 349 359 345 351 341 335 331 335 284 337 352 355 8 80 103 206 202 214 211 202 201 202 201 201 192 180 182 192 179 176 173
329 330 330 337 341 347 356 354 354 352 350 344 336 307 339 356 350 347 314 350 2 359 3 357 353 18 350 295 198 196 207 196 194 191 191 198 198 172 184 186 181 179 179 191
328 325 327 336 352 0 357 357 348 341 337 327 341 330 357 343 353 350 345 359 5 24 11 351 353 354 274 218 203 204 197 190 186 188 184 181 177 167 158 156 182 167 154 163
320 316 320 323 331 339 333 336 340 341 341 335 323 303 330 350 356 342 328 14 26 41 27 340 10 300 221 182 200 195 190 183 183 182 167 181 184 176 168 158 151 157 156 159
310 309 316 318 325 328 326 327 334 335 319 332 306 326 342 359 357 9 20 52 35 65 106 312 274 218 215 199 192 170 162 168 175 178 174 179 172 148 149 158 143 131 162 142
305 307 314 320 328 333 331 333 337 327 316 322 327 326 2 4 5 17 22 54 100 116 140 162 213 215 213 200 187 160 180 167 178 176 173 188 189 158 147 161 151 131 122 112
299 307 314 319 330 333 342 2 3 3 355 350 349 353 354 342 332 21 30 66 134 139 142 139 145 219 231 223 160 166 189 162 132 162 176 179 172 170 181 173 159 142 133 105
289 299 309 313 324 335 354 353 356 4 356 0 3 11 8 349 341 37 64 156 158 152 153 137 117 341 251 209 152 170 178 148 151 186 186 179 164 160 146 114 118 108 99 86
277 285 296 309 320 328 343 7 4 5 1 11 14 18 15 309 19 59 74 109 167 177 175 132 116 32 61 189 177 168 172 182 175 185 185 173 169 139 120 115 113 103 96 83
278 275 282 303 314 330 350 4 8 10 10 10 5 19 4 301 301 250 100 111 123 159 173 93 21 45 71 148 163 140 117 147 187 180 185 190 153 122 123 114 107 93 80 69
275 274 266 281 305 324 338 1 13 9 14 15 284 260 356 13 276 228 164 147 113 142 193 352 73 70 88 90 127 115 177 178 189 146 131 114 114 114 119 104 103 88 71 48
264 268 276 280 300 320 6 6 8 16 13 356 277 252 335 9 325 72 274 301 133 111 85 114 110 83 103 95 101 124 180 160 120 130 141 149 118 111 105 105 95 80 63 30
259 265 275 274 301 326 1 0 7 359 9 17 347 243 228 105 352 52 301 350 200 231 82 104 101 108 112 108 115 115 106 109 108 111 111 111 110 107 104 100 81 45 53 59
258 261 268 278 290 295 328 350 355 348 359 21 18 5 146 161 332 31 353 21 324 317 95 101 106 109 109 107 97 101 106 105 106 105 104 108 111 111 91 58 65 72 66 44
255 257 261 271 280 301 321 336 2 346 344 12 23 15 73 231 271 15 58 67 88 87 106 102 96 104 99 98 91 99 108 143 141 122 124 108 97 97 94 80 74 52 16 26
248 254 257 268 285 300 324 347 350 342 333 341 360 334 12 262 171 40 36 56 70 83 86 91 86 87 92 98 101 104 110 114 113 109 108 106 104 95 85 66 28 8 16 14